| time (UTC) | temp C | wind direction | speed KPH | gust KPH | rain 1hr cm | rain 24hr cm | rain mn cm | humidity % | barometer mb |
| 20260509055504 | 22 | 231 | 1.6 | 4.8 | 0.00 | 0.00 | 0.00 | 90 | 996.7 |
| 20260509055004 | 22 | 265 | 3.2 | 8.0 | 0.00 | 0.00 | 0.00 | 90 | 996.8 |
| 20260509054004 | 22 | 291 | 3.2 | 4.8 | 0.00 | 0.00 | 0.00 | 90 | 996.3 |
| 20260509052004 | 22 | 235 | 3.2 | 4.8 | 0.00 | 0.00 | 0.00 | 90 | 995.5 |
| 20260509051503 | 22 | 252 | 3.2 | 4.8 | 0.00 | 0.00 | 0.00 | 90 | 995.3 |
| 20260509051004 | 22 | 255 | 3.2 | 4.8 | 0.00 | 0.00 | 0.00 | 90 | 995.5 |
| 20260509050504 | 22 | 250 | 3.2 | 4.8 | 0.00 | 0.00 | 0.00 | 90 | 995.4 |
| 20260509050004 | 22 | 278 | 4.8 | 8.0 | 0.00 | 0.00 | 0.00 | 90 | 995.2 |
| 20260509045504 | 22 | 288 | 4.8 | 8.0 | 0.00 | 0.00 | 0.00 | 89 | 995.1 |
| 20260509045004 | 22 | 231 | 4.8 | 8.0 | 0.00 | 0.00 | 0.00 | 89 | 995.3 |
| 20260509044004 | 22 | 229 | 3.2 | 4.8 | 0.00 | 0.00 | 0.00 | 88 | 995.6 |
| 20260509043504 | 22 | 257 | 3.2 | 4.8 | 0.00 | 0.00 | 0.00 | 88 | 995.8 |
| 20260509043004 | 22 | 244 | 1.6 | 4.8 | 0.00 | 0.00 | 0.00 | 88 | 996.0 |
| 20260509042504 | 22 | 278 | 3.2 | 8.0 | 0.00 | 0.00 | 0.00 | 88 | 996.0 |
| 20260509042004 | 22 | 262 | 3.2 | 4.8 | 0.00 | 0.00 | 0.00 | 88 | 996.0 |
| 20260509041504 | 22 | 220 | 3.2 | 8.0 | 0.00 | 0.00 | 0.00 | 88 | 995.9 |
| 20260509040504 | 22 | 244 | 1.6 | 4.8 | 0.00 | 0.00 | 0.00 | 87 | 996.0 |
| 20260509040004 | 22 | 247 | 3.2 | 8.0 | 0.00 | 0.00 | 0.00 | 87 | 996.0 |
| 20260509035504 | 22 | 263 | 3.2 | 4.8 | 0.00 | 0.00 | 0.00 | 87 | 996.1 |
| 20260509034504 | 22 | 217 | 3.2 | 4.8 | 0.00 | 0.00 | 0.00 | 87 | 996.0 |
| 20260509033503 | 22 | 218 | 3.2 | 8.0 | 0.00 | 0.00 | 0.00 | 87 | 995.9 |
| 20260509033003 | 22 | 238 | 3.2 | 8.0 | 0.00 | 0.00 | 0.00 | 87 | 995.9 |
| 20260509032504 | 22 | 281 | 3.2 | 4.8 | 0.00 | 0.00 | 0.00 | 87 | 995.8 |
| 20260509032003 | 22 | 251 | 1.6 | 8.0 | 0.00 | 0.00 | 0.00 | 87 | 995.8 |
| 20260509031503 | 22 | 238 | 3.2 | 11.3 | 0.00 | 0.00 | 0.00 | 87 | 995.6 |
| 20260509031003 | 22 | 238 | 4.8 | 8.0 | 0.00 | 0.00 | 0.00 | 87 | 995.5 |
| 20260509030004 | 22 | 245 | 3.2 | 8.0 | 0.00 | 0.00 | 0.00 | 87 | 995.5 |
| 20260509025504 | 22 | 257 | 4.8 | 8.0 | 0.00 | 0.00 | 0.00 | 87 | 995.5 |
| 20260509025004 | 22 | 262 | 3.2 | 8.0 | 0.00 | 0.00 | 0.00 | 87 | 995.5 |
| 20260509024504 | 22 | 223 | 3.2 | 9.7 | 0.00 | 0.00 | 0.00 | 86 | 995.3 |
| 20260509024004 | 22 | 237 | 4.8 | 8.0 | 0.00 | 0.00 | 0.00 | 86 | 995.4 |
| 20260509023504 | 23 | 263 | 3.2 | 8.0 | 0.00 | 0.00 | 0.00 | 86 | 995.3 |
| 20260509023005 | 23 | 245 | 1.6 | 3.2 | 0.00 | 0.00 | 0.00 | 86 | 995.4 |
| 20260509022504 | 23 | 230 | 1.6 | 3.2 | 0.00 | 0.00 | 0.00 | 86 | 995.5 |
| 20260509021504 | 23 | 213 | 1.6 | 3.2 | 0.00 | 0.00 | 0.00 | 86 | 995.2 |
| 20260509021004 | 22 | 231 | 0.0 | 3.2 | 0.00 | 0.00 | 0.00 | 86 | 995.1 |
| 20260509020504 | 22 | 220 | 1.6 | 3.2 | 0.00 | 0.00 | 0.00 | 86 | 995.0 |
| 20260509020004 | 23 | 242 | 0.0 | 1.6 | 0.00 | 0.00 | 0.00 | 85 | 994.8 |
| 20260509015503 | 23 | 199 | 0.0 | 1.6 | 0.00 | 0.00 | 0.00 | 85 | 994.9 |
| 20260509015004 | 23 | 213 | 1.6 | 8.0 | 0.00 | 0.00 | 0.00 | 85 | 994.8 |
| 20260509014504 | 23 | 182 | 3.2 | 8.0 | 0.00 | 0.00 | 0.00 | 85 | 994.8 |
| 20260509014004 | 23 | 300 | 1.6 | 4.8 | 0.00 | 0.00 | 0.00 | 85 | 994.8 |
| 20260509013503 | 23 | 216 | 3.2 | 8.0 | 0.00 | 0.00 | 0.00 | 84 | 994.6 |
| 20260509013004 | 23 | 212 | 3.2 | 8.0 | 0.00 | 0.00 | 0.00 | 84 | 994.8 |
| 20260509011504 | 23 | 205 | 3.2 | 9.7 | 0.00 | 0.00 | 0.00 | 83 | 994.6 |
| 20260509011004 | 23 | 217 | 1.6 | 4.8 | 0.00 | 0.00 | 0.00 | 83 | 994.5 |
| 20260509010504 | 23 | 270 | 1.6 | 8.0 | 0.00 | 0.00 | 0.00 | 83 | 994.5 |
| 20260509005503 | 23 | 270 | 1.6 | 4.8 | 0.00 | 0.00 | 0.00 | 82 | 994.7 |
| 20260509005004 | 23 | 200 | 3.2 | 9.7 | 0.00 | 0.00 | 0.00 | 82 | 994.7 |
| 20260509004503 | 24 | 157 | 3.2 | 8.0 | 0.00 | 0.00 | 0.00 | 81 | 994.8 |
| 20260509004004 | 24 | 127 | 1.6 | 8.0 | 0.00 | 0.00 | 0.00 | 79 | 994.6 |
| 20260509003004 | 24 | 245 | 1.6 | 8.0 | 0.00 | 0.00 | 0.00 | 79 | 994.7 |
| 20260509002504 | 24 | 201 | 3.2 | 8.0 | 0.00 | 0.00 | 0.00 | 79 | 994.6 |
| 20260509002004 | 24 | 246 | 1.6 | 4.8 | 0.00 | 0.00 | 0.00 | 79 | 994.7 |
| 20260509001004 | 24 | 256 | 1.6 | 8.0 | 0.00 | 0.00 | 0.00 | 79 | 994.6 |
| 20260509000504 | 24 | 233 | 4.8 | 9.7 | 0.00 | 0.00 | 0.00 | 79 | 994.8 |
| 20260509000004 | 24 | 249 | 3.2 | 8.0 | 0.00 | 0.00 | 0.00 | 80 | 994.7 |
| 20260508235503 | 24 | 268 | 3.2 | 11.3 | 0.00 | 0.00 | 0.00 | 80 | 994.8 |
| 20260508235004 | 24 | 227 | 3.2 | 4.8 | 0.00 | 0.00 | 0.00 | 80 | 994.8 |
| 20260508234004 | 24 | 249 | 1.6 | 8.0 | 0.00 | 0.00 | 0.00 | 80 | 994.9 |
| 20260508233504 | 24 | 238 | 3.2 | 11.3 | 0.00 | 0.00 | 0.00 | 80 | 994.8 |
| 20260508233004 | 24 | 183 | 4.8 | 11.3 | 0.00 | 0.00 | 0.00 | 80 | 994.8 |
| 20260508232504 | 24 | 223 | 4.8 | 9.7 | 0.00 | 0.00 | 0.00 | 79 | 994.6 |
| 20260508232004 | 24 | 176 | 6.4 | 11.3 | 0.00 | 0.00 | 0.00 | 79 | 994.6 |
| 20260508231504 | 24 | 185 | 4.8 | 12.9 | 0.00 | 0.00 | 0.00 | 79 | 994.7 |
| 20260508231004 | 24 | 166 | 4.8 | 12.9 | 0.00 | 0.00 | 0.00 | 78 | 994.7 |
| 20260508230504 | 24 | 191 | 3.2 | 8.0 | 0.00 | 0.00 | 0.00 | 78 | 994.7 |
| 20260508225504 | 24 | 216 | 4.8 | 11.3 | 0.00 | 0.00 | 0.00 | 77 | 994.7 |
| 20260508225004 | 25 | 184 | 8.0 | 11.3 | 0.00 | 0.00 | 0.00 | 77 | 994.8 |
| 20260508224504 | 25 | 212 | 3.2 | 9.7 | 0.00 | 0.00 | 0.00 | 76 | 994.7 |
| 20260508223504 | 25 | 222 | 4.8 | 9.7 | 0.00 | 0.00 | 0.00 | 76 | 994.6 |
| 20260508222003 | 25 | 233 | 4.8 | 9.7 | 0.00 | 0.00 | 0.00 | 74 | 994.8 |
| 20260508221503 | 25 | 220 | 4.8 | 12.9 | 0.00 | 0.00 | 0.00 | 74 | 994.8 |
| 20260508221003 | 25 | 189 | 6.4 | 12.9 | 0.00 | 0.00 | 0.00 | 74 | 994.9 |
| 20260508220503 | 25 | 195 | 4.8 | 8.0 | 0.00 | 0.00 | 0.00 | 74 | 994.8 |
| 20260508220003 | 25 | 196 | 4.8 | 8.0 | 0.00 | 0.00 | 0.00 | 73 | 994.9 |
| 20260508215503 | 25 | 230 | 4.8 | 12.9 | 0.00 | 0.00 | 0.00 | 72 | 995.1 |
| 20260508214503 | 25 | 198 | 4.8 | 14.5 | 0.00 | 0.00 | 0.00 | 72 | 995.0 |
| 20260508214004 | 25 | 260 | 3.2 | 8.0 | 0.00 | 0.00 | 0.00 | 72 | 995.0 |
| 20260508213503 | 26 | 198 | 3.2 | 9.7 | 0.00 | 0.00 | 0.00 | 70 | 995.0 |
| 20260508212004 | 26 | 269 | 1.6 | 9.7 | 0.00 | 0.00 | 0.00 | 69 | 995.2 |
| 20260508211504 | 26 | 211 | 1.6 | 9.7 | 0.00 | 0.00 | 0.00 | 68 | 995.3 |
| 20260508211003 | 27 | 308 | 4.8 | 12.9 | 0.00 | 0.00 | 0.00 | 66 | 995.4 |
| 20260508210504 | 26 | 215 | 8.0 | 12.9 | 0.00 | 0.00 | 0.00 | 67 | 995.4 |
| 20260508210003 | 27 | 191 | 3.2 | 12.9 | 0.00 | 0.00 | 0.00 | 67 | 995.5 |
| 20260508205504 | 26 | 222 | 4.8 | 8.0 | 0.00 | 0.00 | 0.00 | 67 | 995.6 |
| 20260508205004 | 26 | 246 | 3.2 | 11.3 | 0.00 | 0.00 | 0.00 | 68 | 995.8 |
| 20260508204504 | 25 | 186 | 4.8 | 11.3 | 0.00 | 0.00 | 0.00 | 70 | 996.0 |
| 20260508204004 | 26 | 205 | 4.8 | 11.3 | 0.00 | 0.00 | 0.00 | 69 | 996.0 |
| 20260508203504 | 26 | 156 | 3.2 | 9.7 | 0.00 | 0.00 | 0.00 | 67 | 995.9 |
| 20260508203004 | 26 | 202 | 4.8 | 11.3 | 0.00 | 0.00 | 0.00 | 68 | 996.0 |
| 20260508202503 | 26 | 232 | 4.8 | 9.7 | 0.00 | 0.00 | 0.00 | 69 | 995.9 |
| 20260508202004 | 26 | 225 | 3.2 | 8.0 | 0.00 | 0.00 | 0.00 | 68 | 996.1 |
| 20260508201504 | 26 | 167 | 4.8 | 9.7 | 0.00 | 0.00 | 0.00 | 68 | 996.2 |
| 20260508201003 | 25 | 274 | 4.8 | 11.3 | 0.00 | 0.00 | 0.00 | 69 | 996.2 |
| 20260508200504 | 25 | 260 | 3.2 | 14.5 | 0.00 | 0.00 | 0.00 | 70 | 996.3 |
| 20260508200003 | 26 | 237 | 4.8 | 14.5 | 0.00 | 0.00 | 0.00 | 68 | 996.2 |
| 20260508195503 | 26 | 195 | 6.4 | 11.3 | 0.00 | 0.00 | 0.00 | 67 | 996.2 |
| 20260508195004 | 26 | 211 | 1.6 | 9.7 | 0.00 | 0.00 | 0.00 | 68 | 996.5 |
| 20260508194503 | 25 | 189 | 4.8 | 9.7 | 0.00 | 0.00 | 0.00 | 69 | 996.6 |
| 20260508193504 | 25 | 240 | 4.8 | 8.0 | 0.00 | 0.00 | 0.00 | 70 | 996.7 |
| 20260508193003 | 25 | 218 | 1.6 | 4.8 | 0.00 | 0.00 | 0.00 | 69 | 996.7 |
| 20260508192504 | 25 | 193 | 1.6 | 8.0 | 0.00 | 0.00 | 0.00 | 69 | 996.8 |
| 20260508192004 | 25 | 234 | 3.2 | 8.0 | 0.00 | 0.00 | 0.00 | 71 | 997.0 |
| 20260508191503 | 25 | 227 | 3.2 | 8.0 | 0.00 | 0.00 | 0.00 | 69 | 997.0 |
| 20260508190504 | 24 | 223 | 3.2 | 4.8 | 0.00 | 0.00 | 0.00 | 70 | 996.8 |
| 20260508190004 | 24 | 188 | 4.8 | 8.0 | 0.00 | 0.00 | 0.00 | 70 | 997.1 |
| 20260508185504 | 24 | 229 | 1.6 | 9.7 | 0.00 | 0.00 | 0.00 | 71 | 997.0 |
| 20260508185004 | 24 | 203 | 3.2 | 9.7 | 0.00 | 0.00 | 0.00 | 71 | 997.0 |
| 20260508184004 | 23 | 226 | 3.2 | 4.8 | 0.00 | 0.00 | 0.00 | 71 | 997.2 |
| 20260508183504 | 24 | 268 | 1.6 | 4.8 | 0.00 | 0.00 | 0.00 | 71 | 997.2 |
| 20260508183004 | 24 | 231 | 3.2 | 4.8 | 0.00 | 0.00 | 0.00 | 70 | 997.3 |
| 20260508182504 | 24 | 164 | 4.8 | 9.7 | 0.00 | 0.00 | 0.00 | 70 | 997.4 |
| 20260508181504 | 23 | 204 | 3.2 | 8.0 | 0.00 | 0.00 | 0.00 | 70 | 997.6 |
| 20260508181004 | 23 | 198 | 3.2 | 8.0 | 0.00 | 0.00 | 0.00 | 70 | 997.7 |
| 20260508180504 | 23 | 87 | 0.0 | 3.2 | 0.00 | 0.00 | 0.00 | 73 | 997.8 |
| 20260508180004 | 22 | 117 | 1.6 | 3.2 | 0.00 | 0.00 | 0.00 | 74 | 997.8 |
| 20260508175004 | 22 | 263 | 1.6 | 3.2 | 0.00 | 0.00 | 0.00 | 73 | 997.8 |
| 20260508174504 | 22 | 188 | 0.0 | 0.0 | 0.00 | 0.00 | 0.00 | 74 | 997.9 |
| 20260508174004 | 21 | 225 | 0.0 | 4.8 | 0.00 | 0.00 | 0.00 | 75 | 997.8 |
| 20260508173504 | 21 | 283 | 3.2 | 4.8 | 0.00 | 0.00 | 0.00 | 75 | 998.1 |
| 20260508173004 | 22 | 282 | 1.6 | 3.2 | 0.00 | 0.00 | 0.00 | 75 | 998.0 |
| 20260508172504 | 22 | 224 | 1.6 | 3.2 | 0.00 | 0.00 | 0.00 | 74 | 998.0 |
| 20260508172004 | 22 | 206 | 3.2 | 4.8 | 0.00 | 0.00 | 0.00 | 73 | 998.1 |
| 20260508171504 | 21 | 181 | 0.0 | 4.8 | 0.00 | 0.00 | 0.00 | 75 | 998.0 |
| 20260508171004 | 21 | 118 | 0.0 | 4.8 | 0.00 | 0.00 | 0.00 | 75 | 998.0 |
| 20260508170504 | 21 | 256 | 1.6 | 4.8 | 0.00 | 0.00 | 0.00 | 75 | 998.2 |
| 20260508165504 | 21 | 230 | 0.0 | 0.0 | 0.00 | 0.00 | 0.00 | 75 | 998.4 |
| 20260508165004 | 20 | 115 | 0.0 | 0.0 | 0.00 | 0.00 | 0.00 | 75 | 998.6 |
| 20260508164504 | 20 | 157 | 0.0 | 0.0 | 0.00 | 0.00 | 0.00 | 76 | 998.7 |
| 20260508164003 | 20 | 205 | 0.0 | 0.0 | 0.00 | 0.00 | 0.00 | 76 | 998.8 |
| 20260508162504 | 20 | 142 | 0.0 | 1.6 | 0.00 | 0.00 | 0.00 | 74 | 999.0 |
| 20260508162004 | 20 | 265 | 1.6 | 3.2 | 0.00 | 0.00 | 0.00 | 75 | 998.8 |
| 20260508161504 | 20 | 231 | 0.0 | 1.6 | 0.00 | 0.00 | 0.00 | 76 | 998.9 |
| 20260508161004 | 19 | 172 | 0.0 | 1.6 | 0.00 | 0.00 | 0.00 | 76 | 998.9 |
| 20260508155504 | 19 | 259 | 0.0 | 0.0 | 0.00 | 0.00 | 0.00 | 77 | 999.3 |
| 20260508155004 | 19 | 250 | 0.0 | 0.0 | 0.00 | 0.00 | 0.00 | 78 | 999.0 |
| 20260508154504 | 18 | 193 | 0.0 | 0.0 | 0.00 | 0.00 | 0.00 | 78 | 999.1 |
| 20260508154004 | 18 | 283 | 1.6 | 3.2 | 0.00 | 0.00 | 0.00 | 78 | 999.2 |
| 20260508153504 | 19 | 245 | 1.6 | 8.0 | 0.00 | 0.00 | 0.00 | 78 | 999.4 |
| 20260508153004 | 19 | 300 | 1.6 | 8.0 | 0.00 | 0.00 | 0.00 | 76 | 999.4 |
| 20260508152504 | 19 | 210 | 0.0 | 1.6 | 0.00 | 0.00 | 0.00 | 76 | 999.3 |
| 20260508152004 | 18 | 249 | 1.6 | 4.8 | 0.00 | 0.00 | 0.00 | 77 | 999.1 |
| 20260508151504 | 18 | 269 | 1.6 | 4.8 | 0.00 | 0.00 | 0.00 | 78 | 999.3 |
| 20260508151004 | 18 | 304 | 1.6 | 4.8 | 0.00 | 0.00 | 0.00 | 78 | 999.2 |
| 20260508150504 | 18 | 258 | 1.6 | 3.2 | 0.00 | 0.00 | 0.00 | 78 | 999.3 |
| 20260508150005 | 18 | 236 | 1.6 | 8.0 | 0.00 | 0.00 | 0.00 | 77 | 999.0 |
| 20260508145503 | 18 | 260 | 3.2 | 8.0 | 0.00 | 0.00 | 0.00 | 78 | 999.2 |
| 20260508145003 | 18 | 275 | 0.0 | 0.0 | 0.00 | 0.00 | 0.00 | 77 | 999.2 |
| 20260508144004 | 18 | 260 | 0.0 | 0.0 | 0.00 | 0.00 | 0.00 | 78 | 999.0 |
| 20260508143004 | 18 | 225 | 0.0 | 3.2 | 0.00 | 0.00 | 0.00 | 78 | 999.0 |
| 20260508142503 | 18 | 141 | 0.0 | 4.8 | 0.00 | 0.00 | 0.00 | 79 | 999.1 |
| 20260508142003 | 18 | 224 | 3.2 | 4.8 | 0.00 | 0.00 | 0.00 | 78 | 999.2 |
| 20260508141504 | 18 | 178 | 1.6 | 3.2 | 0.00 | 0.00 | 0.00 | 78 | 999.3 |
| 20260508141004 | 17 | 229 | 1.6 | 4.8 | 0.00 | 0.00 | 0.00 | 79 | 999.4 |
| 20260508140004 | 18 | 213 | 1.6 | 4.8 | 0.00 | 0.00 | 0.00 | 78 | 999.1 |
| 20260508135504 | 18 | 266 | 1.6 | 3.2 | 0.00 | 0.00 | 0.00 | 78 | 999.0 |
| 20260508135003 | 18 | 234 | 0.0 | 1.6 | 0.00 | 0.00 | 0.00 | 78 | 999.0 |
| 20260508134504 | 17 | 179 | 1.6 | 3.2 | 0.00 | 0.00 | 0.00 | 80 | 998.8 |
| 20260508134004 | 17 | 171 | 1.6 | 4.8 | 0.00 | 0.00 | 0.00 | 80 | 999.0 |
| 20260508133504 | 17 | 158 | 0.0 | 0.0 | 0.00 | 0.00 | 0.00 | 81 | 999.2 |
| 20260508133004 | 16 | 242 | 0.0 | 0.0 | 0.00 | 0.00 | 0.00 | 82 | 999.6 |
| 20260508132504 | 16 | 234 | 0.0 | 0.0 | 0.00 | 0.00 | 0.00 | 82 | 999.6 |
| 20260508132004 | 16 | 263 | 0.0 | 0.0 | 0.00 | 0.00 | 0.00 | 82 | 999.8 |
| 20260508131504 | 16 | 190 | 0.0 | 0.0 | 0.00 | 0.00 | 0.00 | 83 | 999.6 |
| 20260508131004 | 16 | 200 | 0.0 | 3.2 | 0.00 | 0.00 | 0.00 | 84 | 999.6 |
| 20260508130504 | 16 | 238 | 0.0 | 0.0 | 0.00 | 0.00 | 0.00 | 84 | 999.3 |
| 20260508125504 | 16 | 193 | 0.0 | 0.0 | 0.00 | 0.00 | 0.00 | 84 | 999.7 |
| 20260508125004 | 16 | 213 | 0.0 | 0.0 | 0.00 | 0.00 | 0.00 | 85 | 999.4 |
| 20260508124504 | 15 | 241 | 0.0 | 0.0 | 0.00 | 0.00 | 0.00 | 85 | 999.5 |
| 20260508123503 | 15 | 219 | 0.0 | 1.6 | 0.00 | 0.00 | 0.00 | 85 | 999.7 |
| 20260508123003 | 15 | 195 | 0.0 | 0.0 | 0.00 | 0.00 | 0.00 | 85 | 999.5 |
| 20260508122503 | 15 | 197 | 0.0 | 0.0 | 0.00 | 0.00 | 0.00 | 86 | 999.7 |
| 20260508122004 | 15 | 237 | 0.0 | 0.0 | 0.00 | 0.00 | 0.00 | 86 | 999.6 |
| 20260508121004 | 15 | 168 | 0.0 | 0.0 | 0.00 | 0.00 | 0.00 | 86 | 999.7 |
| 20260508120004 | 15 | 291 | 0.0 | 0.0 | 0.00 | 0.00 | 0.00 | 86 | 999.8 |
| 20260508115504 | 15 | 196 | 0.0 | 3.2 | 0.00 | 0.00 | 0.00 | 86 | 999.9 |
| 20260508115004 | 15 | 185 | 1.6 | 3.2 | 0.00 | 0.00 | 0.00 | 86 | 1000.0 |
| 20260508114503 | 15 | 166 | 0.0 | 1.6 | 0.00 | 0.00 | 0.00 | 87 | 999.9 |
| 20260508114003 | 15 | 203 | 1.6 | 1.6 | 0.00 | 0.00 | 0.00 | 87 | 1000.1 |
| 20260508113503 | 15 | 197 | 0.0 | 1.6 | 0.00 | 0.00 | 0.00 | 88 | 1000.1 |
| 20260508113004 | 15 | 186 | 0.0 | 0.0 | 0.00 | 0.00 | 0.00 | 89 | 1000.2 |
| 20260508112503 | 15 | 167 | 0.0 | 0.0 | 0.00 | 0.00 | 0.00 | 89 | 1000.1 |
| 20260508112004 | 15 | 130 | 0.0 | 3.2 | 0.00 | 0.00 | 0.00 | 89 | 1000.2 |
| 20260508111504 | 15 | 92 | 1.6 | 3.2 | 0.00 | 0.00 | 0.00 | 89 | 1000.2 |
| 20260508111004 | 15 | 86 | 0.0 | 3.2 | 0.00 | 0.00 | 0.00 | 89 | 1000.0 |
| 20260508110504 | 15 | 73 | 1.6 | 3.2 | 0.00 | 0.00 | 0.00 | 88 | 1000.0 |
| 20260508105504 | 15 | 99 | 0.0 | 1.6 | 0.00 | 0.00 | 0.00 | 88 | 999.6 |
| 20260508105003 | 15 | 119 | 1.6 | 3.2 | 0.00 | 0.00 | 0.00 | 88 | 999.5 |
| 20260508104504 | 15 | 90 | 0.0 | 0.0 | 0.00 | 0.00 | 0.00 | 88 | 999.7 |
| 20260508103503 | 15 | 65 | 0.0 | 0.0 | 0.00 | 0.00 | 0.00 | 87 | 999.9 |
| 20260508103003 | 15 | 163 | 0.0 | 1.6 | 0.00 | 0.00 | 0.00 | 87 | 999.9 |
| 20260508102504 | 15 | 151 | 0.0 | 1.6 | 0.00 | 0.00 | 0.00 | 87 | 999.9 |
| 20260508102003 | 15 | 56 | 0.0 | 1.6 | 0.00 | 0.00 | 0.00 | 87 | 1000.2 |
| 20260508101503 | 15 | 66 | 0.0 | 1.6 | 0.00 | 0.00 | 0.00 | 88 | 1000.3 |
| 20260508101003 | 15 | 119 | 0.0 | 1.6 | 0.00 | 0.00 | 0.00 | 88 | 1000.4 |
| 20260508100503 | 15 | 91 | 0.0 | 0.0 | 0.00 | 0.00 | 0.00 | 89 | 1000.6 |
| 20260508100004 | 15 | 91 | 0.0 | 0.0 | 0.00 | 0.00 | 0.00 | 89 | 1000.5 |
| 20260508095504 | 15 | 141 | 0.0 | 1.6 | 0.00 | 0.00 | 0.00 | 88 | 1000.5 |
| 20260508095004 | 15 | 79 | 0.0 | 1.6 | 0.00 | 0.00 | 0.00 | 88 | 1000.5 |
| 20260508094505 | 15 | 82 | 1.6 | 4.8 | 0.00 | 0.00 | 0.00 | 88 | 1000.6 |
| 20260508094004 | 15 | 143 | 0.0 | 1.6 | 0.00 | 0.00 | 0.00 | 88 | 1000.6 |
| 20260508093504 | 15 | 118 | 1.6 | 4.8 | 0.00 | 0.00 | 0.00 | 87 | 1000.6 |
| 20260508092504 | 15 | 73 | 0.0 | 0.0 | 0.00 | 0.00 | 0.00 | 86 | 1000.6 |
| 20260508091504 | 15 | 107 | 0.0 | 0.0 | 0.00 | 0.00 | 0.00 | 83 | 1000.3 |
| 20260508091004 | 15 | 137 | 0.0 | 0.0 | 0.00 | 0.00 | 0.00 | 82 | 1000.1 |
| 20260508090504 | 15 | 89 | 0.0 | 0.0 | 0.00 | 0.00 | 0.00 | 81 | 1000.0 |
| 20260508090004 | 15 | 176 | 0.0 | 0.0 | 0.00 | 0.00 | 0.00 | 81 | 1000.0 |
| 20260508085504 | 15 | 158 | 0.0 | 0.0 | 0.00 | 0.00 | 0.00 | 81 | 1000.0 |
| 20260508085004 | 15 | 193 | 0.0 | 0.0 | 0.00 | 0.00 | 0.00 | 81 | 999.9 |
| 20260508084504 | 15 | 190 | 0.0 | 0.0 | 0.00 | 0.00 | 0.00 | 82 | 999.9 |
| 20260508083004 | 15 | 205 | 0.0 | 0.0 | 0.00 | 0.00 | 0.00 | 82 | 1000.0 |
| 20260508082004 | 15 | 211 | 0.0 | 0.0 | 0.00 | 0.00 | 0.00 | 82 | 1000.0 |
| 20260508081504 | 15 | 198 | 0.0 | 0.0 | 0.00 | 0.00 | 0.00 | 83 | 999.9 |
| 20260508081004 | 15 | 212 | 0.0 | 0.0 | 0.00 | 0.00 | 0.00 | 83 | 1000.0 |
| 20260508080004 | 15 | 166 | 0.0 | 0.0 | 0.00 | 0.00 | 0.00 | 84 | 999.7 |
| 20260508075505 | 15 | 198 | 0.0 | 0.0 | 0.00 | 0.00 | 0.00 | 84 | 999.9 |
| 20260508075004 | 15 | 187 | 0.0 | 1.6 | 0.00 | 0.00 | 0.00 | 84 | 999.8 |
| 20260508074504 | 15 | 166 | 0.0 | 3.2 | 0.00 | 0.00 | 0.00 | 84 | 999.7 |
| 20260508074004 | 15 | 183 | 0.0 | 0.0 | 0.00 | 0.00 | 0.00 | 85 | 999.7 |
| 20260508073504 | 15 | 209 | 0.0 | 0.0 | 0.00 | 0.00 | 0.00 | 85 | 999.8 |
| 20260508073004 | 15 | 189 | 1.6 | 3.2 | 0.00 | 0.00 | 0.00 | 85 | 999.7 |
| 20260508072504 | 15 | 172 | 1.6 | 3.2 | 0.00 | 0.00 | 0.00 | 86 | 1000.0 |
| 20260508071503 | 14 | 172 | 0.0 | 0.0 | 0.00 | 0.00 | 0.00 | 87 | 1000.0 |
| 20260508070503 | 14 | 119 | 0.0 | 1.6 | 0.00 | 0.00 | 0.00 | 86 | 1000.1 |
| 20260508070004 | 14 | 103 | 0.0 | 1.6 | 0.00 | 0.00 | 0.00 | 86 | 1000.3 |
| 20260508064503 | 14 | 137 | 0.0 | 0.0 | 0.00 | 0.00 | 0.00 | 87 | 1000.5 |
| 20260508064003 | 14 | 152 | 0.0 | 0.0 | 0.00 | 0.00 | 0.00 | 88 | 1000.7 |
| 20260508063503 | 14 | 178 | 0.0 | 0.0 | 0.00 | 0.00 | 0.00 | 88 | 1000.7 |
| 20260508063003 | 14 | 181 | 0.0 | 0.0 | 0.00 | 0.00 | 0.00 | 88 | 1000.7 |
| 20260508062504 | 14 | 190 | 0.0 | 0.0 | 0.00 | 0.00 | 0.00 | 88 | 1000.9 |
| 20260508062003 | 14 | 191 | 0.0 | 0.0 | 0.00 | 0.00 | 0.00 | 88 | 1000.8 |
| 20260508061503 | 14 | 142 | 0.0 | 0.0 | 0.00 | 0.00 | 0.00 | 87 | 1000.9 |
| 20260508061003 | 14 | 142 | 0.0 | 0.0 | 0.00 | 0.00 | 0.00 | 87 | 1000.9 |
| 20260508060505 | 14 | 129 | 0.0 | 0.0 | 0.00 | 0.00 | 0.00 | 86 | 1001.1 |
| 20260508060005 | 14 | 74 | 0.0 | 0.0 | 0.00 | 0.00 | 0.00 | 86 | 1001.0 |